| time (UTC) | temp F | wind direction | speed MPH | gust MPH | rain 1hr in | rain 24hr in | rain mn in | humidity % | barometer mb |
| 20260901000903 | 81 | 312 | 0.0 | 4.0 | 0.00 | 0.00 | 0.00 | 41 | 1007.5 |
| 20260901000004 | 82 | 315 | 2.0 | 4.0 | 0.00 | 0.00 | 0.00 | 41 | 1007.5 |
| 20260831235616 | 82 | 315 | 2.0 | 4.0 | 0.00 | 0.00 | 0.00 | 41 | 1007.5 |
| 20260831234503 | 81 | 298 | 1.0 | 4.0 | 0.00 | 0.00 | 0.00 | 41 | 1007.8 |
| 20260831233816 | 81 | 292 | 2.0 | 4.0 | 0.00 | 0.00 | 0.00 | 42 | 1007.9 |
| 20260831232703 | 81 | 292 | 0.0 | 4.0 | 0.00 | 0.00 | 0.00 | 42 | 1008.0 |
| 20260831231803 | 81 | 279 | 0.0 | 4.0 | 0.00 | 0.00 | 0.00 | 41 | 1008.0 |
| 20260831230903 | 81 | 0 | 0.0 | 0.0 | 0.00 | 0.00 | 0.00 | 42 | 1008.4 |
| 20260831230215 | 81 | 270 | 0.0 | 2.0 | 0.00 | 0.00 | 0.00 | 42 | 1008.3 |
| 20260831225404 | 82 | 270 | 0.0 | 2.0 | 0.00 | 0.00 | 0.00 | 42 | 1008.3 |
| 20260831224504 | 82 | 270 | 0.0 | 2.0 | 0.00 | 0.00 | 0.00 | 42 | 1007.9 |
| 20260831223816 | 82 | 270 | 1.0 | 2.0 | 0.00 | 0.00 | 0.00 | 39 | 1008.2 |
| 20260831222703 | 82 | 270 | 0.0 | 2.0 | 0.00 | 0.00 | 0.00 | 39 | 1008.4 |
| 20260831222016 | 82 | 270 | 0.0 | 2.0 | 0.00 | 0.00 | 0.00 | 42 | 1008.4 |
| 20260831220903 | 82 | 275 | 1.0 | 2.0 | 0.00 | 0.00 | 0.00 | 40 | 1008.6 |
| 20260831220216 | 83 | 286 | 0.0 | 2.0 | 0.00 | 0.00 | 0.00 | 39 | 1008.4 |
| 20260831215403 | 83 | 292 | 0.0 | 2.0 | 0.00 | 0.00 | 0.00 | 39 | 1008.5 |
| 20260831214715 | 82 | 292 | 0.0 | 2.0 | 0.00 | 0.00 | 0.00 | 39 | 1008.6 |
| 20260831213604 | 83 | 0 | 0.0 | 0.0 | 0.00 | 0.00 | 0.00 | 39 | 1008.5 |
| 20260831212914 | 83 | 292 | 0.0 | 2.0 | 0.00 | 0.00 | 0.00 | 39 | 1008.6 |
| 20260831212017 | 83 | 292 | 0.0 | 4.0 | 0.00 | 0.00 | 0.00 | 38 | 1008.6 |
| 20260831211114 | 83 | 0 | 0.0 | 0.0 | 0.00 | 0.00 | 0.00 | 42 | 1008.6 |
| 20260831210011 | 84 | 292 | 0.0 | 4.0 | 0.00 | 0.00 | 0.00 | 41 | 1008.3 |
| 20260831205403 | 84 | 285 | 2.0 | 4.0 | 0.00 | 0.00 | 0.00 | 41 | 1008.6 |
| 20260831204715 | 84 | 270 | 0.0 | 2.0 | 0.00 | 0.00 | 0.00 | 41 | 1008.3 |
| 20260831203813 | 84 | 268 | 0.0 | 2.0 | 0.00 | 0.00 | 0.00 | 40 | 1008.5 |
| 20260831202703 | 84 | 246 | 0.0 | 4.0 | 0.00 | 0.00 | 0.00 | 39 | 1008.4 |
| 20260831201804 | 84 | 253 | 1.0 | 4.0 | 0.00 | 0.00 | 0.00 | 39 | 1008.3 |
| 20260831200904 | 84 | 255 | 2.0 | 4.0 | 0.00 | 0.00 | 0.00 | 39 | 1008.5 |
| 20260831200004 | 84 | 266 | 2.0 | 6.0 | 0.00 | 0.00 | 0.00 | 39 | 1008.4 |
| 20260831195614 | 84 | 256 | 2.0 | 6.0 | 0.00 | 0.00 | 0.00 | 39 | 1008.5 |
| 20260831194503 | 84 | 248 | 1.0 | 4.0 | 0.00 | 0.00 | 0.00 | 39 | 1008.3 |
| 20260831193813 | 84 | 229 | 2.0 | 4.0 | 0.00 | 0.00 | 0.00 | 39 | 1008.4 |
| 20260831192703 | 84 | 251 | 2.0 | 6.0 | 0.00 | 0.00 | 0.00 | 39 | 1008.2 |
| 20260831192013 | 84 | 236 | 3.0 | 4.0 | 0.00 | 0.00 | 0.00 | 38 | 1008.2 |
| 20260831191115 | 84 | 237 | 2.0 | 7.0 | 0.00 | 0.00 | 0.00 | 38 | 1008.4 |
| 20260831190004 | 85 | 247 | 2.0 | 4.0 | 0.00 | 0.00 | 0.00 | 38 | 1008.2 |
| 20260831185614 | 85 | 220 | 2.0 | 4.0 | 0.00 | 0.00 | 0.00 | 38 | 1008.0 |
| 20260831184717 | 85 | 247 | 2.0 | 4.0 | 0.00 | 0.00 | 0.00 | 38 | 1008.0 |
| 20260831183604 | 85 | 272 | 1.0 | 4.0 | 0.00 | 0.00 | 0.00 | 37 | 1007.8 |
| 20260831182916 | 85 | 264 | 1.0 | 4.0 | 0.00 | 0.00 | 0.00 | 37 | 1007.7 |
| 20260831181803 | 85 | 269 | 1.0 | 4.0 | 0.00 | 0.00 | 0.00 | 37 | 1007.6 |
| 20260831181116 | 85 | 246 | 2.0 | 4.0 | 0.00 | 0.00 | 0.00 | 37 | 1007.7 |
| 20260831180213 | 86 | 265 | 2.0 | 4.0 | 0.00 | 0.00 | 0.00 | 37 | 1007.6 |
| 20260831175615 | 86 | 266 | 2.0 | 2.0 | 0.00 | 0.00 | 0.00 | 37 | 1007.7 |
| 20260831174503 | 86 | 238 | 2.0 | 7.0 | 0.00 | 0.00 | 0.00 | 37 | 1007.5 |
| 20260831173603 | 86 | 211 | 2.0 | 4.0 | 0.00 | 0.00 | 0.00 | 36 | 1007.5 |
| 20260831172704 | 87 | 247 | 1.0 | 4.0 | 0.00 | 0.00 | 0.00 | 36 | 1007.4 |
| 20260831171804 | 87 | 242 | 2.0 | 6.0 | 0.00 | 0.00 | 0.00 | 36 | 1007.5 |
| 20260831171117 | 87 | 267 | 2.0 | 4.0 | 0.00 | 0.00 | 0.00 | 36 | 1007.5 |
| 20260831170004 | 87 | 257 | 1.0 | 6.0 | 0.00 | 0.00 | 0.00 | 36 | 1007.5 |
| 20260831165616 | 87 | 249 | 2.0 | 6.0 | 0.00 | 0.00 | 0.00 | 36 | 1007.3 |
| 20260831164503 | 88 | 271 | 2.0 | 6.0 | 0.00 | 0.00 | 0.00 | 36 | 1007.3 |
| 20260831163603 | 89 | 245 | 2.0 | 6.0 | 0.00 | 0.00 | 0.00 | 35 | 1007.3 |
| 20260831162703 | 90 | 240 | 2.0 | 6.0 | 0.00 | 0.00 | 0.00 | 35 | 1007.2 |
| 20260831162015 | 90 | 228 | 2.0 | 4.0 | 0.00 | 0.00 | 0.00 | 34 | 1007.4 |
| 20260831160903 | 91 | 253 | 2.0 | 8.0 | 0.00 | 0.00 | 0.00 | 34 | 1007.3 |
| 20260831160004 | 92 | 288 | 2.0 | 9.0 | 0.00 | 0.00 | 0.00 | 33 | 1007.1 |
| 20260831155616 | 92 | 308 | 2.0 | 9.0 | 0.00 | 0.00 | 0.00 | 33 | 1007.3 |
| 20260831154504 | 94 | 212 | 2.0 | 4.0 | 0.00 | 0.00 | 0.00 | 32 | 1007.2 |
| 20260831153603 | 95 | 253 | 2.0 | 4.0 | 0.00 | 0.00 | 0.00 | 31 | 1007.4 |
| 20260831152703 | 95 | 265 | 2.0 | 4.0 | 0.00 | 0.00 | 0.00 | 31 | 1007.2 |
| 20260831152016 | 96 | 278 | 1.0 | 4.0 | 0.00 | 0.00 | 0.00 | 31 | 1007.2 |
| 20260831150903 | 95 | 253 | 2.0 | 4.0 | 0.00 | 0.00 | 0.00 | 31 | 1007.1 |
| 20260831150004 | 95 | 242 | 3.0 | 6.0 | 0.00 | 0.00 | 0.00 | 32 | 1007.3 |
| 20260831145617 | 95 | 254 | 2.0 | 6.0 | 0.00 | 0.00 | 0.00 | 32 | 1007.1 |
| 20260831144504 | 95 | 356 | 2.0 | 8.0 | 0.00 | 0.00 | 0.00 | 32 | 1007.3 |
| 20260831143817 | 95 | 133 | 4.0 | 7.0 | 0.00 | 0.00 | 0.00 | 32 | 1007.5 |
| 20260831142704 | 95 | 171 | 1.0 | 7.0 | 0.00 | 0.00 | 0.00 | 37 | 1007.4 |
| 20260831142016 | 93 | 131 | 2.0 | 8.0 | 0.00 | 0.00 | 0.00 | 39 | 1007.3 |
| 20260831141113 | 93 | 134 | 2.0 | 8.0 | 0.00 | 0.00 | 0.00 | 38 | 1007.4 |
| 20260831140216 | 94 | 155 | 3.0 | 7.0 | 0.00 | 0.00 | 0.00 | 38 | 1007.5 |
| 20260831135617 | 95 | 204 | 1.0 | 7.0 | 0.00 | 0.00 | 0.00 | 37 | 1007.5 |
| 20260831134715 | 93 | 243 | 2.0 | 8.0 | 0.00 | 0.00 | 0.00 | 38 | 1007.5 |
| 20260831133603 | 94 | 224 | 2.0 | 6.0 | 0.00 | 0.00 | 0.00 | 38 | 1007.6 |
| 20260831132703 | 93 | 269 | 2.0 | 11.0 | 0.00 | 0.00 | 0.00 | 37 | 1007.2 |
| 20260831132017 | 92 | 249 | 6.0 | 11.0 | 0.00 | 0.00 | 0.00 | 38 | 1007.4 |
| 20260831131114 | 92 | 100 | 3.0 | 9.0 | 0.00 | 0.00 | 0.00 | 39 | 1007.6 |
| 20260831130004 | 93 | 118 | 3.0 | 8.0 | 0.00 | 0.00 | 0.00 | 38 | 1007.6 |
| 20260831125613 | 93 | 108 | 4.0 | 8.0 | 0.00 | 0.00 | 0.00 | 38 | 1007.6 |
| 20260831124715 | 93 | 100 | 2.0 | 9.0 | 0.00 | 0.00 | 0.00 | 39 | 1007.5 |
| 20260831123813 | 93 | 247 | 4.0 | 8.0 | 0.00 | 0.00 | 0.00 | 38 | 1007.7 |
| 20260831122915 | 96 | 87 | 1.0 | 9.0 | 0.00 | 0.00 | 0.00 | 32 | 1007.9 |
| 20260831122017 | 96 | 287 | 4.0 | 9.0 | 0.00 | 0.00 | 0.00 | 33 | 1008.0 |
| 20260831120903 | 96 | 235 | 3.0 | 6.0 | 0.00 | 0.00 | 0.00 | 33 | 1007.9 |
| 20260831120003 | 96 | 260 | 2.0 | 6.0 | 0.00 | 0.00 | 0.00 | 33 | 1008.0 |
| 20260831115614 | 96 | 234 | 2.0 | 9.0 | 0.00 | 0.00 | 0.00 | 33 | 1008.2 |
| 20260831114716 | 95 | 269 | 3.0 | 9.0 | 0.00 | 0.00 | 0.00 | 34 | 1008.1 |
| 20260831113604 | 95 | 123 | 2.0 | 7.0 | 0.00 | 0.00 | 0.00 | 34 | 1008.3 |
| 20260831112916 | 96 | 82 | 2.0 | 7.0 | 0.00 | 0.00 | 0.00 | 33 | 1008.4 |
| 20260831112013 | 94 | 87 | 2.0 | 13.0 | 0.00 | 0.00 | 0.00 | 34 | 1008.5 |
| 20260831110903 | 94 | 94 | 2.0 | 11.0 | 0.00 | 0.00 | 0.00 | 34 | 1008.4 |
| 20260831110213 | 93 | 108 | 4.0 | 8.0 | 0.00 | 0.00 | 0.00 | 35 | 1008.4 |
| 20260831105614 | 94 | 154 | 2.0 | 7.0 | 0.00 | 0.00 | 0.00 | 34 | 1008.7 |
| 20260831104717 | 94 | 238 | 2.0 | 7.0 | 0.00 | 0.00 | 0.00 | 34 | 1008.6 |
| 20260831103604 | 94 | 223 | 2.0 | 6.0 | 0.00 | 0.00 | 0.00 | 34 | 1008.8 |
| 20260831102916 | 94 | 68 | 2.0 | 9.0 | 0.00 | 0.00 | 0.00 | 35 | 1008.9 |
| 20260831101804 | 93 | 212 | 3.0 | 8.0 | 0.00 | 0.00 | 0.00 | 35 | 1009.0 |
| 20260831100903 | 93 | 42 | 3.0 | 11.0 | 0.00 | 0.00 | 0.00 | 36 | 1008.9 |
| 20260831100004 | 93 | 82 | 3.0 | 9.0 | 0.00 | 0.00 | 0.00 | 36 | 1009.0 |
| 20260831095615 | 93 | 113 | 2.0 | 9.0 | 0.00 | 0.00 | 0.00 | 36 | 1009.1 |
| 20260831094503 | 92 | 290 | 3.0 | 6.0 | 0.00 | 0.00 | 0.00 | 37 | 1009.2 |
| 20260831093603 | 92 | 31 | 2.0 | 8.0 | 0.00 | 0.00 | 0.00 | 36 | 1009.4 |
| 20260831092703 | 93 | 321 | 2.0 | 6.0 | 0.00 | 0.00 | 0.00 | 37 | 1009.3 |
| 20260831091803 | 92 | 239 | 2.0 | 4.0 | 0.00 | 0.00 | 0.00 | 37 | 1009.4 |
| 20260831091117 | 92 | 247 | 1.0 | 6.0 | 0.00 | 0.00 | 0.00 | 38 | 1009.2 |
| 20260831090004 | 92 | 274 | 1.0 | 4.0 | 0.00 | 0.00 | 0.00 | 37 | 1009.3 |
| 20260831085616 | 92 | 279 | 3.0 | 4.0 | 0.00 | 0.00 | 0.00 | 37 | 1009.6 |
| 20260831084503 | 91 | 217 | 2.0 | 6.0 | 0.00 | 0.00 | 0.00 | 39 | 1009.9 |
| 20260831083815 | 91 | 264 | 2.0 | 4.0 | 0.00 | 0.00 | 0.00 | 39 | 1009.7 |
| 20260831082918 | 90 | 259 | 2.0 | 6.0 | 0.00 | 0.00 | 0.00 | 39 | 1009.6 |
| 20260831081803 | 90 | 226 | 2.0 | 4.0 | 0.00 | 0.00 | 0.00 | 40 | 1009.6 |
| 20260831081117 | 90 | 212 | 2.0 | 4.0 | 0.00 | 0.00 | 0.00 | 40 | 1009.7 |
| 20260831080215 | 89 | 238 | 2.0 | 7.0 | 0.00 | 0.00 | 0.00 | 41 | 1009.7 |
| 20260831075616 | 88 | 261 | 4.0 | 7.0 | 0.00 | 0.00 | 0.00 | 42 | 1009.9 |
| 20260831074504 | 88 | 274 | 2.0 | 9.0 | 0.00 | 0.00 | 0.00 | 42 | 1009.6 |
| 20260831073604 | 88 | 124 | 3.0 | 9.0 | 0.00 | 0.00 | 0.00 | 43 | 1009.5 |
| 20260831072703 | 88 | 232 | 2.0 | 6.0 | 0.00 | 0.00 | 0.00 | 43 | 1009.5 |
| 20260831071803 | 88 | 248 | 2.0 | 6.0 | 0.00 | 0.00 | 0.00 | 43 | 1009.5 |
| 20260831071113 | 86 | 261 | 2.0 | 6.0 | 0.00 | 0.00 | 0.00 | 45 | 1009.6 |
| 20260831070215 | 87 | 236 | 2.0 | 6.0 | 0.00 | 0.00 | 0.00 | 44 | 1009.4 |
| 20260831065403 | 86 | 279 | 2.0 | 6.0 | 0.00 | 0.00 | 0.00 | 45 | 1009.5 |
| 20260831064503 | 87 | 247 | 1.0 | 4.0 | 0.00 | 0.00 | 0.00 | 44 | 1009.6 |
| 20260831063817 | 85 | 244 | 2.0 | 4.0 | 0.00 | 0.00 | 0.00 | 44 | 1009.6 |
| 20260831062914 | 85 | 239 | 1.0 | 6.0 | 0.00 | 0.00 | 0.00 | 44 | 1009.6 |
| 20260831061804 | 84 | 257 | 1.0 | 4.0 | 0.00 | 0.00 | 0.00 | 45 | 1009.8 |
| 20260831061113 | 85 | 261 | 2.0 | 4.0 | 0.00 | 0.00 | 0.00 | 44 | 1009.7 |
| 20260831060004 | 84 | 234 | 2.0 | 4.0 | 0.00 | 0.00 | 0.00 | 46 | 1009.5 |
| 20260831055617 | 84 | 213 | 1.0 | 4.0 | 0.00 | 0.00 | 0.00 | 47 | 1009.8 |
| 20260831054503 | 83 | 275 | 1.0 | 4.0 | 0.00 | 0.00 | 0.00 | 49 | 1009.6 |
| 20260831053817 | 82 | 297 | 2.0 | 4.0 | 0.00 | 0.00 | 0.00 | 50 | 1009.7 |
| 20260831052703 | 81 | 264 | 1.0 | 4.0 | 0.00 | 0.00 | 0.00 | 52 | 1009.6 |
| 20260831051803 | 81 | 306 | 1.0 | 6.0 | 0.00 | 0.00 | 0.00 | 51 | 1009.5 |
| 20260831050904 | 80 | 273 | 2.0 | 4.0 | 0.00 | 0.00 | 0.00 | 51 | 1009.6 |
| 20260831050216 | 80 | 264 | 1.0 | 4.0 | 0.00 | 0.00 | 0.00 | 50 | 1009.4 |
| 20260831045404 | 79 | 244 | 2.0 | 4.0 | 0.00 | 0.00 | 0.00 | 49 | 1009.4 |
| 20260831044715 | 79 | 232 | 1.0 | 4.0 | 0.00 | 0.00 | 0.00 | 49 | 1009.4 |
| 20260831043813 | 79 | 256 | 0.0 | 2.0 | 0.00 | 0.00 | 0.00 | 49 | 1009.6 |
| 20260831042703 | 79 | 231 | 0.0 | 2.0 | 0.00 | 0.00 | 0.00 | 49 | 1009.4 |
| 20260831041803 | 78 | 241 | 1.0 | 2.0 | 0.00 | 0.00 | 0.00 | 49 | 1009.2 |
| 20260831040903 | 78 | 265 | 0.0 | 4.0 | 0.00 | 0.00 | 0.00 | 49 | 1009.1 |
| 20260831040217 | 78 | 274 | 1.0 | 4.0 | 0.00 | 0.00 | 0.00 | 49 | 1009.1 |
| 20260831035614 | 78 | 248 | 2.0 | 4.0 | 0.00 | 0.00 | 0.00 | 49 | 1009.2 |
| 20260831034504 | 79 | 262 | 2.0 | 4.0 | 0.00 | 0.00 | 0.00 | 48 | 1009.0 |
| 20260831033813 | 78 | 279 | 0.0 | 4.0 | 0.00 | 0.00 | 0.00 | 49 | 1009.3 |
| 20260831032704 | 79 | 290 | 2.0 | 4.0 | 0.00 | 0.00 | 0.00 | 49 | 1009.3 |
| 20260831032013 | 78 | 294 | 1.0 | 2.0 | 0.00 | 0.00 | 0.00 | 49 | 1009.0 |
| 20260831030903 | 78 | 314 | 2.0 | 8.0 | 0.00 | 0.00 | 0.00 | 49 | 1009.4 |
| 20260831030218 | 78 | 306 | 3.0 | 6.0 | 0.00 | 0.00 | 0.00 | 49 | 1009.4 |
| 20260831025403 | 79 | 294 | 2.0 | 4.0 | 0.00 | 0.00 | 0.00 | 49 | 1009.4 |
| 20260831024503 | 79 | 271 | 1.0 | 4.0 | 0.00 | 0.00 | 0.00 | 49 | 1009.1 |
| 20260831023814 | 79 | 175 | 1.0 | 2.0 | 0.00 | 0.00 | 0.00 | 49 | 1009.1 |
| 20260831022916 | 79 | 121 | 1.0 | 2.0 | 0.00 | 0.00 | 0.00 | 49 | 1009.2 |
| 20260831022014 | 79 | 235 | 0.0 | 2.0 | 0.00 | 0.00 | 0.00 | 48 | 1009.2 |
| 20260831021116 | 79 | 275 | 0.0 | 4.0 | 0.00 | 0.00 | 0.00 | 49 | 1009.0 |
| 20260831020213 | 79 | 254 | 1.0 | 4.0 | 0.00 | 0.00 | 0.00 | 49 | 1009.0 |
| 20260831015403 | 79 | 221 | 1.0 | 2.0 | 0.00 | 0.00 | 0.00 | 49 | 1009.3 |
| 20260831014717 | 79 | 262 | 1.0 | 4.0 | 0.00 | 0.00 | 0.00 | 49 | 1009.4 |
| 20260831013603 | 79 | 249 | 2.0 | 4.0 | 0.00 | 0.00 | 0.00 | 50 | 1009.2 |
| 20260831012917 | 79 | 284 | 1.0 | 7.0 | 0.00 | 0.00 | 0.00 | 50 | 1009.0 |
| 20260831012014 | 79 | 306 | 2.0 | 4.0 | 0.00 | 0.00 | 0.00 | 52 | 1009.2 |
| 20260831010903 | 79 | 315 | 1.0 | 4.0 | 0.00 | 0.00 | 0.00 | 52 | 1009.3 |
| 20260831010214 | 79 | 316 | 2.0 | 4.0 | 0.00 | 0.00 | 0.00 | 52 | 1009.4 |
| 20260831005404 | 79 | 303 | 0.0 | 4.0 | 0.00 | 0.00 | 0.00 | 52 | 1009.5 |
| 20260831004713 | 79 | 279 | 0.0 | 2.0 | 0.00 | 0.00 | 0.00 | 52 | 1009.6 |
| 20260831003815 | 79 | 251 | 0.0 | 2.0 | 0.00 | 0.00 | 0.00 | 52 | 1009.4 |
| 20260831002918 | 79 | 208 | 0.0 | 2.0 | 0.00 | 0.00 | 0.00 | 52 | 1009.1 |
| 20260831002015 | 80 | 239 | 1.0 | 2.0 | 0.00 | 0.00 | 0.00 | 51 | 1009.4 |